sat.trackr.live / text

‹ back to catalog

STARLINK-31531

NORAD 59477 · 2024-068Y

PAYLOAD ACTIVE UNKNOWN

§ Identity

Operator
Country
US
Launch date
2024-04-10
Launch site
AFETR
Launch vehicle
Mass (kg)
RCS (m²)

Purposes: comms

External: N2YO · Heavens-Above · Gunter

§ Orbital elements

Epoch: 2026-09-21T05:27:57.875616Z

Period
94.27 min
Inclination
43.0035°
Eccentricity
0.0001230
Mean motion
15.27577088 rev/d
Perigee alt
482.2 km
Apogee alt
483.9 km
Semi-major
6,861.2 km
B*
-1.3653e-5
RAAN
315.0705°
Arg perigee
262.0415°
Mean anomaly
98.0297°
Rev number
13,905

§ Raw data

STARLINK-315311 59477U 24068Y   26264.22775319 -.00000638  00000+0 -13653-4 0  99982 59477  43.0035 315.0705 0001230 262.0415  98.0297 15.27577088139059

JSON: /api/v1/satellites/59477 · /tle

For live sub-satellite position, see the globe view (requires WebGL).

§ Visibility from observer

Set your observer location to see the next 7 days of passes ≥ 10°. The values pass through the URL so the page stays shareable.

No JS? Fill the form by hand. The geolocation button needs JavaScript.